Regional Weather Roundup
Issued by NWS Sioux Falls, SD

Home | Current Version | Previous Version | Graphics & Text | Print | Product List | Glossary Off
Versions: 1 2 3 4 5 6 7 8 9 10 11 12 13 14 15 16 17 18 19 20 21 22 23 24 25 26 27 28 29 30 31 32 33 34 35 36 37 38 39 40 41 42 43 44 45 46 47 48 49 50

000
ASUS43 KFSD 231210
RWRFSD

WEATHER ROUNDUP FOR SE SOUTH DAKOTA/SW MINNESOTA/NW IOWA
NATIONAL WEATHER SERVICE SIOUX FALLS SD
700 AM CDT THU OCT 23 2014

NOTE: "FAIR" INDICATES FEW OR NO CLOUDS BELOW 12,000 FEET WITH NO
SIGNIFICANT WEATHER AND OR OBSTRUCTIONS TO VISIBILITY.


SDZ038>040-050-052>070-231300-
SOUTHEAST SOUTH DAKOTA

CITY           SKY/WX    TMP DP  RH WIND       PRES   REMARKS
CHAMBERLAIN    CLEAR     35  35  96 SW3       29.99F
6HR MIN TEMP:  34; 6HR MAX TEMP:  43;

HURON          CLEAR     35  34  96 E5        29.98S
6HR MIN TEMP:  35; 6HR MAX TEMP:  46;

MADISON        FAIR      43  43 100 SW7       30.00S
MITCHELL       CLEAR     43  41  93 S3        30.00S
6HR MIN TEMP:  42; 6HR MAX TEMP:  49;

SIOUX FALLS    FOG       44  44 100 CALM      30.02R VSB 1/8
6HR MIN TEMP:  43; 6HR MAX TEMP:  51;

WINNER         FAIR      50  43  77 SW8       29.99F
YANKTON          N/A     43  41  93 CALM      30.03S VSB<1/4
$$

MNZ071-072-080-081-089-090-097-098-231300-
SOUTHWEST MINNESOTA

CITY           SKY/WX    TMP DP  RH WIND       PRES   REMARKS
FAIRMONT       CLOUDY    54  50  87 SW5       30.00S
JACKSON        CLOUDY    50  48  93 W5        30.01S FOG
LUVERNE        FOG       46  46 100 S3        30.02R VSB 1/4
MARSHALL       CLEAR     48  43  81 W12       29.97S
6HR MIN TEMP:  48; 6HR MAX TEMP:  55;

MONTEVIDEO     CLEAR     45  45 100 SW3       29.98R FOG
PIPESTONE      FOG       48  48 100 CALM      30.00S VSB<1/4
REDWOOD FALLS  FOG       45  44  97 SW6       29.98S VSB 1/4
TRACY          CLEAR     49  48  97 SW10      29.99S
WINDOM         FOG       52  50  93 SW6       30.00S VSB 3/4
WORTHINGTON    CLOUDY    50  48  93 W5        30.02R VSB 1/2
$$

IAZ001>003-012>014-020>022-031-032-NEZ013-014-SDZ071-231300-
NORTHWEST IOWA

CITY           SKY/WX    TMP DP  RH WIND       PRES   REMARKS
CHEROKEE       FOG       52  52 100 CALM      30.02S VSB 1/4
DENISON        CLOUDY    59  59 100 CALM      30.00S FOG
ESTHERVILLE    FOG       51  51 100 NW6       30.00S VSB 1/4
LE MARS        FOG       50  50 100 SW3       30.03S VSB<1/4
ORANGE CITY    FOG       52  48  87 CALM      30.03R VSB<1/4
SHELDON        FOG       46  46 100 SW3       30.01S VSB<1/4
SIOUX CITY     FOG       50  50 100 CALM      30.04R VSB 1/4
6HR MIN TEMP:  50; 6HR MAX TEMP:  60; 6HR PCP: TRACE;

SPENCER        FOG       51  50  96 NW6       30.02R VSB 1/4
6HR MIN TEMP:  51; 6HR MAX TEMP:  58; 6HR PCP:  0.03;

STORM LAKE     CLOUDY    55  54  94 NW5       30.03R
$$

ABBREVIATIONS USED IN REMARKS
   TC - TEMPERATURE IN CELSIUS
  WCI - WIND CHILL INDEX
   HX - HEAT INDEX
  VSB - VISIBILITY




USA.gov is the U.S. government's official web portal to all federal, state and local government web resources and services.